This is the latest recevied weather packets stored in our database for station/object KI7MOQ. If no packets are shown the sender has not sent any weather packets the latest 10 day(s).
| Time | Temp. | Humidity | Pressure | Rain* | Wind** | Luminosity | Snow |
|---|---|---|---|---|---|---|---|
| 1777740971 | 12.22° C | 86% | 1018.4 hPa | 0 mm | - | 106 W/m² | - |
| 1777740668 | 12.22° C | 86% | 1018.4 hPa | 0 mm | - | 79 W/m² | - |
| 1777740363 | 12.22° C | 86% | 1018.4 hPa | 0 mm | - | 68 W/m² | - |
| 1777740060 | 12.22° C | 87% | 1018.6 hPa | 0 mm | - | 90 W/m² | - |
| 1777739756 | 11.67° C | 87% | 1018.5 hPa | 0 mm | - | 84 W/m² | - |
| 1777739453 | 11.67° C | 88% | 1018.7 hPa | 0 mm | - | 63 W/m² | - |
| 1777739150 | 11.67° C | 88% | 1018.6 hPa | 0 mm | - | 58 W/m² | - |
| 1777738847 | 11.67° C | 88% | 1018.7 hPa | 0 mm | - | 55 W/m² | - |
| 1777738544 | 11.67° C | 88% | 1018.6 hPa | 0 mm | - | 52 W/m² | - |
| 1777738242 | 11.67° C | 88% | 1018.7 hPa | 0 mm | - | 39 W/m² | - |
| 1777737939 | 11.67° C | 88% | 1018.8 hPa | 0 mm | - | 44 W/m² | - |
| 1777737638 | 11.67° C | 88% | 1018.7 hPa | 0 mm | - | 56 W/m² | - |
| 1777737336 | 11.11° C | 88% | 1018.9 hPa | 0 mm | - | 52 W/m² | - |
| 1777737033 | 11.11° C | 88% | 1018.8 hPa | 0 mm | - | 48 W/m² | - |
| 1777736729 | 11.11° C | 89% | 1018.8 hPa | 0 mm | - | 47 W/m² | - |
| 1777736101 | 11.11° C | 88% | 1018.7 hPa | 0 mm | - | 40 W/m² | - |
| 1777735798 | 11.11° C | 88% | 1018.7 hPa | 0 mm | - | 34 W/m² | - |
| 1777735496 | 11.11° C | 88% | 1018.9 hPa | 0 mm | - | 38 W/m² | - |
| 1777735193 | 11.11° C | 88% | 1018.8 hPa | 0 mm | - | 38 W/m² | - |
| 1777734890 | 11.11° C | 88% | 1018.8 hPa | 0 mm | - | 40 W/m² | - |
| 1777734587 | 11.11° C | 88% | 1018.9 hPa | 0 mm | - | 35 W/m² | - |
| 1777734284 | 11.11° C | 89% | 1018.8 hPa | 0 mm | - | 31 W/m² | - |
| 1777733980 | 11.11° C | 89% | 1018.8 hPa | 0 mm | - | 26 W/m² | - |
| 1777733677 | 11.11° C | 89% | 1018.8 hPa | 0 mm | - | 24 W/m² | - |
| 1777733373 | 10.56° C | 89% | 1018.8 hPa | 0 mm | - | 25 W/m² | - |
* Rain latest hour (hover to see other rain measurements)
** Current wind speed in m/s (hover to see current wind gust speed)